Wind_Speed
18 22 22 21 21 20 19 19 18 16 18 20 21 20 18 18 19 18 17 14 13 12 11 11 8 8 8 10 11 12 12 14 16 18 18 18 18 18 18 17 16 18 17
18 24 23 23 22 22 21 21 19 18 17 20 20 20 19 17 18 18 17 16 15 14 14 14 12 9 9 10 12 15 14 14 15 16 17 17 18 19 17 17 13 16 19
20 24 24 24 24 23 23 23 19 20 20 21 22 22 20 18 18 17 17 17 17 17 17 17 16 13 12 13 13 14 16 15 15 14 15 16 18 18 19 17 18 16 18
25 25 24 24 25 25 24 24 22 21 22 23 21 21 23 22 19 17 17 18 18 18 18 19 18 17 16 14 16 15 15 17 16 15 15 16 15 17 17 18 21 19 17
29 26 24 26 26 27 26 25 23 24 23 24 22 19 20 22 23 21 20 19 19 19 20 19 20 19 18 16 17 16 16 16 18 16 17 13 14 17 16 18 20 18 19
30 27 26 26 27 27 28 25 24 24 25 25 22 21 20 19 21 22 21 20 20 20 20 19 20 19 19 18 19 17 16 16 19 22 19 20 13 14 18 18 18 18 20
33 27 28 28 28 28 29 28 26 26 26 26 25 21 21 21 20 20 21 21 21 20 19 20 20 19 19 19 19 18 18 17 20 23 21 15 10 20 18 17 19 20 19
34 32 29 29 30 31 31 30 29 28 27 27 27 25 22 21 20 20 20 21 20 21 21 21 21 20 19 19 19 18 20 19 20 22 22 16 24 25 21 16 17 19 19
31 32 31 31 32 33 33 33 31 31 29 28 28 28 27 25 24 22 22 23 23 23 23 23 23 22 21 19 19 19 20 20 20 22 20 21 25 14 28 25 20 19 18
32 32 34 34 33 33 35 34 35 33 33 30 29 30 32 30 27 26 26 26 27 27 26 24 24 22 21 19 20 20 20 21 22 22 23 25 24 23 26 27 24 19 18
33 32 34 35 35 35 35 36 36 36 34 32 30 30 32 31 29 28 28 29 28 28 27 25 23 21 20 20 20 21 21 22 22 23 21 27 24 24 22 23 22 21 20
35 37 36 36 37 38 37 37 38 37 35 33 30 29 32 34 33 31 31 30 29 28 27 25 23 21 22 22 22 23 23 22 22 25 24 25 28 25 23 27 26 23 27
39 38 38 39 40 39 39 39 40 40 36 34 32 32 33 35 35 37 34 32 30 30 28 27 24 23 23 23 21 22 23 23 21 25 25 28 21 29 27 24 24 23 21
42 39 39 43 41 41 41 40 42 43 41 36 34 35 35 35 35 36 38 35 33 31 30 29 28 26 24 24 24 23 23 23 22 25 26 26 30 29 24 26 24 23 21
44 44 43 40 41 43 43 43 42 43 43 40 37 37 37 36 37 38 40 39 37 34 31 32 29 29 26 24 25 23 25 23 22 23 25 28 29 30 26 27 28 26 32
52 47 45 42 42 40 42 42 42 43 44 42 39 38 39 37 38 40 42 43 40 35 36 33 32 29 29 27 26 27 25 23 23 23 24 28 31 32 33 31 34 30 29
52 50 46 47 45 42 42 43 43 46 46 45 41 40 40 37 40 38 40 37 40 41 36 36 35 33 30 30 29 28 28 27 26 24 25 26 32 32 33 31 34 30 31
49 49 48 46 52 52 50 48 47 48 49 48 46 44 41 40 38 38 39 37 39 43 40 38 39 37 33 33 32 31 27 27 27 26 27 29 29 33 32 35 36 32 31
46 49 50 49 52 53 51 50 49 49 50 49 48 47 45 44 40 42 43 41 43 42 45 42 42 41 37 36 34 33 30 27 28 27 29 31 29 31 31 34 38 31 29
46 48 48 48 48 51 51 51 52 51 51 51 51 51 52 48 46 44 44 42 41 44 43 45 44 43 37 38 36 36 31 29 29 27 29 29 30 29 28 31 30 28 26
43 45 47 47 48 48 50 51 52 53 53 53 54 54 53 55 49 48 47 45 40 43 43 48 48 46 40 39 39 36 36 31 30 30 29 28 28 28 26 22 26 27 28
43 42 43 45 47 48 49 49 51 52 53 53 53 53 53 53 53 50 48 45 43 42 45 45 50 47 44 41 41 37 35 33 30 32 30 29 27 25 25 21 23 29 20
44 41 41 42 44 46 47 48 49 49 51 53 53 54 55 53 55 55 51 48 48 43 45 46 49 50 45 44 44 40 37 33 32 33 32 30 28 27 24 24 21 26 24
49 44 43 43 44 45 46 47 49 49 50 51 51 51 51 50 51 51 48 46 49 46 47 47 48 49 48 49 44 40 38 38 34 33 33 32 29 28 26 24 26 23 17
46 45 45 45 45 46 47 47 48 48 50 51 51 52 50 50 49 50 48 48 47 48 47 50 49 50 51 51 44 41 41 40 38 35 33 32 29 31 29 27 28 26 21
45 46 46 45 45 45 46 47 47 48 49 51 52 54 54 55 54 53 53 53 49 46 47 48 51 51 53 53 49 45 42 41 40 37 37 34 30 28 30 29 29 30 25
Wind_Direction
271 268 273 277 278 281 280 286 284 288 280 283 283 279 271 264 256 258 265 268 278 288 302 307 318 330 340 345 342 337 329 319 308 305 304 301 298 297 294 297 287 277 269
262 263 268 272 276 278 276 282 282 275 285 282 279 279 275 271 265 259 261 270 275 283 290 296 304 309 318 327 333 336 332 324 317 312 312 299 294 292 296 293 276 278 275
262 264 265 266 267 268 270 274 278 272 274 281 283 281 277 273 269 264 264 266 271 276 285 291 295 301 310 317 322 330 334 331 324 315 315 299 301 292 296 292 293 292 282
261 264 263 263 267 269 271 274 277 273 272 274 280 283 278 277 277 278 275 273 274 278 283 286 288 294 301 310 312 325 333 330 325 314 310 300 293 292 294 288 289 289 275
262 261 262 262 267 271 272 276 280 279 277 279 280 278 275 272 274 275 278 283 284 282 282 282 285 287 292 299 304 314 325 329 327 308 286 297 285 302 293 286 295 289 269
259 258 259 259 262 267 272 275 276 274 276 278 280 277 279 280 275 273 276 283 287 286 285 283 279 281 287 292 297 302 306 321 319 309 309 272 280 295 301 284 295 295 282
264 260 258 259 262 264 267 270 271 270 273 276 279 277 279 283 286 281 277 278 279 277 278 276 274 277 281 286 289 294 300 306 311 313 307 224 311 308 304 287 291 292 268
266 266 262 262 261 262 264 267 270 270 271 274 279 281 278 279 284 285 283 279 276 276 275 273 276 279 281 282 285 290 292 297 304 313 319 263 296 298 290 288 287 290 272
266 267 266 263 262 263 265 268 267 268 271 273 276 279 279 276 279 281 283 284 283 279 277 281 284 286 288 286 285 283 287 292 295 302 301 296 289 288 300 294 285 284 269
264 266 267 265 262 262 264 266 267 269 271 273 275 276 279 282 284 286 285 283 286 284 283 280 284 287 288 285 283 279 283 287 289 292 298 295 286 290 291 286 282 271 258
266 265 267 268 267 263 262 263 264 265 268 271 274 276 278 278 278 280 284 287 284 284 284 281 282 281 282 285 283 277 275 280 284 285 287 285 280 277 288 274 278 265 252
263 263 263 265 264 262 261 262 262 264 265 268 269 271 273 277 280 280 281 283 286 284 284 283 281 279 282 285 284 277 272 274 278 281 278 282 286 284 275 276 274 261 257
263 262 266 260 261 260 261 261 264 265 266 266 266 266 268 274 279 284 285 285 283 283 280 279 276 276 284 286 282 277 272 269 272 278 282 297 272 280 278 275 270 267 274
264 264 262 258 256 260 259 261 261 264 266 266 264 264 265 267 272 276 282 284 282 282 280 278 275 277 282 283 281 277 272 266 269 278 283 286 292 289 283 280 274 267 264
262 259 257 258 258 256 258 257 258 261 265 265 264 265 265 264 266 271 275 278 283 281 276 274 272 272 280 283 281 280 270 265 267 275 283 287 291 287 281 279 279 265 267
255 253 252 260 263 264 257 259 260 260 261 263 261 261 264 264 263 268 270 274 274 275 277 275 276 276 277 281 283 276 273 269 270 272 276 282 282 276 272 269 278 278 273
266 267 264 249 256 248 262 256 259 263 264 266 263 261 263 262 264 268 271 272 270 271 272 274 275 276 276 279 281 275 272 268 272 273 278 278 280 278 271 270 275 274 273
269 266 265 258 254 252 258 258 258 259 261 264 264 265 264 263 258 259 261 271 271 272 272 276 277 278 278 278 279 279 267 267 270 275 279 281 278 276 274 275 277 276 270
270 266 261 258 255 258 258 258 260 261 263 264 265 265 265 266 262 257 260 266 269 270 272 274 279 279 277 278 278 278 271 264 265 273 280 280 281 275 279 282 279 266 263
265 264 263 261 259 258 258 257 258 258 260 263 265 265 267 266 265 262 258 258 261 265 269 271 273 275 277 277 277 276 273 265 265 272 278 278 279 279 285 287 267 251 266
265 265 263 261 260 258 257 259 258 257 258 258 259 262 261 267 264 261 259 257 255 258 262 266 269 272 273 275 273 274 271 267 265 271 275 275 278 280 286 276 267 255 271
265 263 263 263 262 262 261 259 258 258 258 257 259 262 264 266 267 263 260 259 254 251 256 260 267 269 269 269 273 270 272 265 266 271 276 274 278 279 283 286 275 255 279
267 266 263 262 262 261 262 262 262 262 261 260 258 259 259 258 258 258 256 256 255 250 249 252 257 263 266 266 267 269 268 261 260 267 272 271 274 276 277 283 280 255 272
270 265 262 261 260 260 258 258 259 260 260 260 260 260 258 257 257 259 258 251 251 248 244 245 248 255 258 261 262 265 265 259 256 259 267 268 271 273 273 273 284 284 282
264 263 261 261 260 260 259 259 259 258 258 257 258 259 258 258 255 255 255 255 249 248 249 248 247 249 254 257 260 260 260 258 253 259 260 261 267 273 275 280 280 276 277
261 261 261 261 261 262 262 262 261 261 261 260 259 258 259 259 259 258 258 256 250 248 250 249 249 248 249 253 254 254 256 253 250 248 262 262 257 264 273 277 278 279 269
Height
5859 5856 5857 5858 5858 5857 5857 5856 5856 5856 5855 5854 5854 5855 5855 5855 5855 5856 5856 5855 5855 5855 5854 5855 5854 5853 5853 5853 5853 5853 5851 5849 5847 5843 5842 5841 5841 5840 5840 5841 5840 5840 5841
5856 5853 5854 5854 5854 5854 5854 5854 5853 5852 5851 5851 5850 5850 5851 5852 5852 5854 5854 5854 5853 5853 5853 5853 5853 5851 5851 5851 5851 5851 5850 5848 5847 5844 5842 5841 5840 5839 5839 5838 5838 5839 5838
5852 5850 5850 5850 5850 5850 5850 5850 5850 5849 5848 5848 5848 5847 5848 5849 5849 5850 5850 5851 5852 5851 5851 5851 5851 5851 5850 5850 5849 5850 5849 5848 5846 5844 5841 5840 5839 5838 5839 5837 5837 5836 5835
5846 5846 5846 5846 5846 5846 5846 5846 5846 5846 5845 5845 5845 5845 5845 5845 5846 5846 5847 5848 5849 5848 5848 5849 5849 5848 5848 5848 5849 5848 5846 5845 5844 5842 5838 5836 5835 5835 5835 5835 5834 5833 5833
5839 5842 5843 5842 5842 5841 5842 5842 5843 5843 5842 5842 5842 5842 5841 5841 5841 5842 5843 5845 5845 5845 5845 5846 5846 5846 5845 5845 5846 5845 5843 5843 5842 5838 5832 5834 5833 5834 5832 5832 5832 5831 5831
5835 5838 5838 5838 5837 5837 5838 5838 5839 5839 5839 5839 5839 5839 5838 5837 5837 5837 5839 5840 5841 5841 5842 5842 5842 5842 5842 5842 5843 5842 5840 5840 5838 5836 5834 5825 5828 5831 5830 5829 5829 5828 5828
5829 5833 5833 5833 5833 5833 5833 5833 5834 5834 5834 5834 5835 5835 5835 5835 5835 5834 5835 5835 5836 5836 5836 5837 5836 5837 5837 5839 5840 5839 5838 5838 5835 5833 5831 5797 5822 5827 5826 5826 5826 5826 5826
5824 5826 5828 5829 5828 5828 5828 5828 5829 5830 5830 5830 5830 5831 5831 5832 5832 5832 5833 5833 5833 5833 5833 5833 5833 5832 5833 5834 5835 5835 5834 5835 5834 5831 5828 5816 5821 5822 5822 5822 5823 5823 5824
5819 5821 5822 5823 5823 5823 5823 5823 5823 5824 5825 5826 5826 5826 5826 5827 5828 5829 5829 5829 5829 5829 5829 5829 5829 5829 5829 5830 5830 5831 5830 5831 5831 5831 5827 5814 5817 5815 5816 5821 5821 5821 5822
5814 5815 5816 5816 5817 5817 5817 5818 5819 5819 5821 5821 5821 5821 5821 5822 5823 5824 5825 5825 5826 5826 5826 5824 5824 5824 5824 5825 5826 5826 5826 5827 5827 5827 5824 5820 5813 5814 5816 5819 5818 5817 5818
5807 5808 5808 5810 5811 5811 5811 5811 5812 5813 5814 5815 5816 5816 5816 5817 5818 5819 5820 5821 5821 5821 5822 5821 5821 5820 5820 5821 5821 5822 5822 5822 5822 5820 5819 5811 5809 5813 5807 5815 5815 5813 5812
5801 5799 5800 5802 5802 5803 5804 5805 5805 5806 5807 5809 5811 5811 5810 5811 5812 5813 5814 5814 5816 5817 5817 5817 5817 5817 5816 5816 5816 5817 5817 5817 5816 5813 5811 5810 5808 5808 5805 5810 5811 5809 5805
5791 5793 5793 5793 5793 5794 5795 5797 5797 5798 5800 5802 5804 5804 5804 5805 5805 5806 5807 5809 5811 5811 5812 5812 5813 5812 5812 5811 5811 5811 5812 5813 5811 5807 5806 5806 5808 5805 5803 5805 5806 5804 5803
5783 5785 5787 5783 5783 5785 5787 5788 5789 5790 5792 5795 5796 5798 5799 5799 5799 5801 5801 5802 5804 5806 5807 5807 5808 5808 5808 5806 5806 5806 5807 5807 5807 5804 5801 5800 5797 5797 5795 5799 5799 5798 5800
5774 5774 5777 5775 5776 5776 5776 5779 5780 5782 5784 5787 5789 5791 5792 5794 5794 5794 5795 5795 5798 5800 5801 5802 5803 5804 5804 5803 5800 5800 5800 5802 5802 5801 5796 5794 5792 5791 5792 5794 5793 5797 5796
5761 5763 5767 5770 5770 5766 5768 5769 5770 5772 5775 5777 5781 5784 5785 5787 5788 5788 5789 5789 5791 5793 5793 5795 5797 5798 5799 5798 5796 5793 5793 5796 5797 5796 5795 5793 5791 5790 5788 5789 5790 5794 5793
5752 5753 5757 5759 5761 5763 5755 5759 5762 5762 5766 5768 5772 5773 5777 5780 5780 5782 5782 5781 5782 5784 5787 5788 5789 5790 5792 5792 5792 5788 5787 5789 5790 5790 5790 5790 5786 5784 5782 5783 5783 5785 5787
5741 5743 5746 5751 5749 5750 5752 5752 5752 5755 5757 5758 5761 5763 5767 5769 5772 5773 5774 5775 5775 5775 5779 5780 5781 5782 5783 5785 5785 5784 5782 5782 5783 5783 5783 5781 5782 5777 5777 5777 5777 5778 5779
5731 5731 5733 5736 5738 5739 5740 5742 5744 5746 5747 5749 5751 5753 5756 5759 5763 5764 5766 5767 5766 5768 5767 5772 5773 5773 5775 5776 5779 5777 5776 5774 5776 5776 5775 5773 5774 5773 5772 5771 5769 5770 5772
5719 5721 5722 5724 5726 5728 5728 5731 5733 5734 5736 5738 5740 5742 5744 5748 5751 5754 5756 5760 5760 5759 5760 5760 5764 5764 5767 5768 5771 5771 5770 5769 5769 5769 5768 5766 5766 5765 5767 5765 5762 5763 5765
5710 5711 5712 5712 5713 5715 5717 5719 5720 5723 5725 5727 5729 5732 5735 5736 5740 5742 5745 5747 5752 5752 5752 5750 5752 5755 5758 5759 5761 5764 5764 5763 5763 5763 5761 5760 5761 5760 5761 5759 5758 5757 5758
5696 5699 5700 5701 5702 5702 5704 5707 5709 5711 5713 5714 5717 5720 5723 5724 5725 5729 5732 5735 5739 5742 5742 5743 5742 5747 5748 5750 5752 5754 5757 5758 5757 5755 5754 5754 5754 5755 5754 5753 5752 5753 5750
5685 5686 5688 5690 5691 5692 5693 5693 5695 5698 5701 5703 5704 5706 5708 5710 5711 5713 5719 5721 5723 5727 5730 5733 5734 5735 5739 5740 5742 5745 5748 5751 5750 5749 5749 5747 5747 5749 5749 5748 5747 5749 5747
5675 5675 5675 5677 5678 5680 5681 5683 5684 5686 5687 5689 5689 5692 5695 5698 5699 5701 5703 5708 5710 5713 5716 5720 5723 5725 5727 5729 5732 5738 5740 5741 5743 5742 5741 5742 5741 5743 5743 5745 5743 5743 5743
5662 5663 5664 5665 5666 5667 5669 5670 5672 5674 5676 5677 5677 5678 5680 5683 5687 5689 5692 5693 5697 5700 5703 5707 5710 5713 5716 5719 5723 5727 5730 5732 5735 5735 5734 5735 5735 5735 5736 5737 5738 5738 5738
5649 5650 5652 5654 5655 5656 5657 5659 5660 5662 5663 5664 5665 5666 5668 5669 5672 5676 5678 5679 5681 5686 5689 5694 5698 5702 5705 5707 5711 5714 5720 5722 5725 5726 5726 5726 5728 5729 5730 5731 5731 5731 5733